SWR2XH LEMG-LSZH

Flight info

Callsign SWR2XH
Flight time N/A
Altitude 34000
Route BLN DCT ANZAN DCT NASOS DCT INTAX DCT CJN DCT BRITO DCT YAKXU DCT RONNY DCT TOPTU DCT TOU DCT GAI DCT MEN/N0452F320 DCT NINUN DCT LATAM DCT ETREK DCT LTP/N0447F300 DCT SOPLO DCT OMASI DCT KINNI DCT LAMUR DCT GUDAX Z57 DOPIL
Aircraft A321/M-SDE3FGHIRWY/LB1

Departure

Time 2026-05-06 11:12
Airport Málaga-Costa del Sol Airport (LEMG)

Arrival

Time N/A
Airport Zürich Airport (LSZH)
Time Latitude Longitude Altitude Speed Heading
2026-05-06 10:36 36.67894 -4.49493 37 ft 0 kts 213°
2026-05-06 11:03 36.67907 -4.49482 36 ft 4 kts 213°
2026-05-06 11:03 36.67924 -4.49467 34 ft 4 kts 239°
2026-05-06 11:03 36.67928 -4.49440 35 ft 4 kts 291°
2026-05-06 11:04 36.67919 -4.49418 35 ft 0 kts 311°
2026-05-06 11:06 36.67921 -4.49422 37 ft 2 kts 308°
2026-05-06 11:06 36.67939 -4.49451 37 ft 8 kts 309°
2026-05-06 11:06 36.67981 -4.49511 37 ft 10 kts 311°
2026-05-06 11:07 36.68018 -4.49581 37 ft 10 kts 275°
2026-05-06 11:07 36.67972 -4.49658 36 ft 13 kts 222°
2026-05-06 11:07 36.67895 -4.49743 36 ft 17 kts 222°
2026-05-06 11:07 36.67800 -4.49847 35 ft 19 kts 214°
2026-05-06 11:08 36.67718 -4.49923 35 ft 12 kts 276°
2026-05-06 11:08 36.67749 -4.49976 35 ft 12 kts 311°
2026-05-06 11:08 36.67807 -4.50059 35 ft 14 kts 311°
2026-05-06 11:08 36.67875 -4.50154 35 ft 16 kts 311°
2026-05-06 11:09 36.67979 -4.50301 35 ft 19 kts 311°
2026-05-06 11:09 36.68039 -4.50385 35 ft 20 kts 312°
2026-05-06 11:09 36.68136 -4.50521 35 ft 22 kts 311°
2026-05-06 11:09 36.68243 -4.50669 35 ft 24 kts 311°
2026-05-06 11:10 36.68358 -4.50830 35 ft 25 kts 311°
2026-05-06 11:10 36.68465 -4.50981 35 ft 12 kts 312°
2026-05-06 11:10 36.68505 -4.51061 36 ft 10 kts 279°
2026-05-06 11:10 36.68489 -4.51132 36 ft 8 kts 252°
2026-05-06 11:11 36.68473 -4.51189 36 ft 7 kts 249°
2026-05-06 11:11 36.68431 -4.51220 36 ft 9 kts 160°
2026-05-06 11:11 36.68367 -4.51136 37 ft 22 kts 132°
2026-05-06 11:11 36.68216 -4.50926 36 ft 46 kts 131°
2026-05-06 11:12 36.67851 -4.50417 36 ft 108 kts 131°
2026-05-06 11:12 36.67239 -4.49560 37 ft 155 kts 132°
2026-05-06 11:12 36.66481 -4.48516 493 ft 158 kts 133°
2026-05-06 11:12 36.65734 -4.47490 1087 ft 163 kts 131°
2026-05-06 11:13 36.64973 -4.46423 1712 ft 167 kts 130°
2026-05-06 11:13 36.64162 -4.45261 1870 ft 188 kts 131°
2026-05-06 11:13 36.63244 -4.43969 2009 ft 210 kts 132°
2026-05-06 11:13 36.62225 -4.42547 2156 ft 229 kts 132°
2026-05-06 11:14 36.61127 -4.41017 2461 ft 242 kts 132°
2026-05-06 11:14 36.60117 -4.39338 3121 ft 244 kts 115°
2026-05-06 11:14 36.59619 -4.37330 3755 ft 244 kts 100°
2026-05-06 11:14 36.59278 -4.35248 4393 ft 246 kts 100°
2026-05-06 11:15 36.58932 -4.33156 5060 ft 248 kts 100°
2026-05-06 11:15 36.58593 -4.31035 5690 ft 251 kts 96°
2026-05-06 11:15 36.58649 -4.28869 6300 ft 252 kts 75°
2026-05-06 11:15 36.59281 -4.26815 6728 ft 259 kts 55°
2026-05-06 11:16 36.60382 -4.25013 7253 ft 264 kts 49°
2026-05-06 11:16 36.61539 -4.23211 7840 ft 269 kts 49°
2026-05-06 11:16 36.62824 -4.21513 8425 ft 270 kts 36°
2026-05-06 11:16 36.64445 -4.20288 8798 ft 281 kts 19°
2026-05-06 11:17 36.66337 -4.19507 9174 ft 291 kts 15°
2026-05-06 11:17 36.68284 -4.18728 9760 ft 296 kts 15°
2026-05-06 11:17 36.70264 -4.17925 10215 ft 306 kts 15°
2026-05-06 11:17 36.72363 -4.17080 10339 ft 328 kts 14°
2026-05-06 11:18 36.74608 -4.16200 10468 ft 349 kts 14°
2026-05-06 11:18 36.76993 -4.15278 10582 ft 368 kts 14°
2026-05-06 11:18 36.79477 -4.14317 10950 ft 378 kts 14°
2026-05-06 11:18 36.82004 -4.13334 11523 ft 382 kts 15°
2026-05-06 11:19 36.84555 -4.12335 12090 ft 386 kts 14°
2026-05-06 11:19 36.87130 -4.11326 12680 ft 390 kts 14°
2026-05-06 11:19 36.89730 -4.10309 13286 ft 394 kts 14°
2026-05-06 11:19 36.92324 -4.09297 13842 ft 397 kts 13°
2026-05-06 11:20 36.95010 -4.08250 14357 ft 401 kts 13°
2026-05-06 11:20 36.97647 -4.07221 14877 ft 404 kts 13°
2026-05-06 11:20 37.00337 -4.06166 15361 ft 407 kts 13°
2026-05-06 11:20 37.03051 -4.05100 15835 ft 410 kts 13°
2026-05-06 11:21 37.05815 -4.04013 16338 ft 413 kts 13°
2026-05-06 11:21 37.08565 -4.02933 16821 ft 416 kts 13°
2026-05-06 11:21 37.11334 -4.01848 17301 ft 419 kts 13°
2026-05-06 11:21 37.14127 -4.00751 17764 ft 422 kts 13°
2026-05-06 11:22 37.16935 -3.99647 18212 ft 425 kts 13°
2026-05-06 11:22 37.19767 -3.98539 18586 ft 428 kts 13°
2026-05-06 11:22 37.22626 -3.97452 18979 ft 430 kts 12°
2026-05-06 11:22 37.25462 -3.96397 19366 ft 433 kts 12°
2026-05-06 11:23 37.28359 -3.95328 19748 ft 435 kts 12°
2026-05-06 11:23 37.31273 -3.94253 20136 ft 438 kts 12°
2026-05-06 11:23 37.34208 -3.93164 20532 ft 441 kts 12°
2026-05-06 11:23 37.37157 -3.92066 20903 ft 444 kts 12°
2026-05-06 11:24 37.40125 -3.90956 21299 ft 446 kts 12°
2026-05-06 11:24 37.43107 -3.89839 21684 ft 449 kts 12°
2026-05-06 11:24 37.46106 -3.88713 22061 ft 451 kts 12°
2026-05-06 11:24 37.49123 -3.87578 22431 ft 454 kts 11°
2026-05-06 11:25 37.52162 -3.86433 22815 ft 457 kts 11°
2026-05-06 11:25 37.55217 -3.85281 23186 ft 460 kts 12°
2026-05-06 11:25 37.58288 -3.84123 23554 ft 462 kts 12°
2026-05-06 11:25 37.61379 -3.82959 23853 ft 464 kts 11°
2026-05-06 11:26 37.64481 -3.81789 24145 ft 467 kts 11°
2026-05-06 11:26 37.67595 -3.80612 24445 ft 468 kts 11°
2026-05-06 11:26 37.70725 -3.79427 24749 ft 471 kts 11°
2026-05-06 11:26 37.73875 -3.78233 25027 ft 473 kts 11°
2026-05-06 11:27 37.77033 -3.77034 25306 ft 475 kts 11°
2026-05-06 11:27 37.80204 -3.75828 25578 ft 477 kts 11°
2026-05-06 11:27 37.83397 -3.74614 25839 ft 480 kts 11°
2026-05-06 11:27 37.86602 -3.73397 26102 ft 482 kts 11°
2026-05-06 11:28 37.89823 -3.72178 26355 ft 485 kts 11°
2026-05-06 11:28 37.93061 -3.70951 26612 ft 487 kts 11°
2026-05-06 11:28 37.96315 -3.69714 26869 ft 490 kts 11°
2026-05-06 11:28 37.99585 -3.68469 27134 ft 492 kts 11°
2026-05-06 11:29 38.02868 -3.67219 27375 ft 494 kts 11°
2026-05-06 11:29 38.06166 -3.65962 27658 ft 495 kts 11°
2026-05-06 11:29 38.09466 -3.64698 28010 ft 495 kts 11°
2026-05-06 11:29 38.12760 -3.63433 28356 ft 495 kts 11°
2026-05-06 11:30 38.16062 -3.62150 28686 ft 496 kts 11°
2026-05-06 11:30 38.19341 -3.60758 29009 ft 498 kts 13°
2026-05-06 11:30 38.22597 -3.59249 29335 ft 499 kts 14°
2026-05-06 11:30 38.25845 -3.57662 29652 ft 500 kts 15°
2026-05-06 11:31 38.29084 -3.56052 29955 ft 500 kts 15°
2026-05-06 11:31 38.32333 -3.54447 30226 ft 501 kts 14°
2026-05-06 11:31 38.35588 -3.52867 30494 ft 500 kts 14°
2026-05-06 11:31 38.38851 -3.51315 30776 ft 499 kts 14°
2026-05-06 11:32 38.42108 -3.49784 31065 ft 499 kts 13°
2026-05-06 11:32 38.45368 -3.48252 31363 ft 499 kts 13°
2026-05-06 11:32 38.48622 -3.46717 31653 ft 498 kts 13°
2026-05-06 11:32 38.51871 -3.45177 31942 ft 498 kts 13°
2026-05-06 11:33 38.55120 -3.43630 32229 ft 498 kts 13°
2026-05-06 11:33 38.58363 -3.42084 32524 ft 497 kts 13°
2026-05-06 11:33 38.61608 -3.40539 32868 ft 497 kts 15°
2026-05-06 11:33 38.64837 -3.39001 33216 ft 495 kts 14°
2026-05-06 11:34 38.68062 -3.37461 33536 ft 494 kts 14°
2026-05-06 11:34 38.71277 -3.35921 33831 ft 493 kts 14°
2026-05-06 11:34 38.74491 -3.34384 33943 ft 493 kts 14°
2026-05-06 11:35 38.80899 -3.31321 33953 ft 491 kts 14°
2026-05-06 11:35 38.87293 -3.28251 33955 ft 490 kts 14°
2026-05-06 11:36 38.93680 -3.25181 33959 ft 490 kts 14°
2026-05-06 11:36 39.00065 -3.22112 33954 ft 490 kts 14°
2026-05-06 11:37 39.06444 -3.19034 33953 ft 489 kts 14°
2026-05-06 11:37 39.12816 -3.15957 33966 ft 489 kts 14°
2026-05-06 11:38 39.19187 -3.12878 33972 ft 489 kts 15°
2026-05-06 11:38 39.25552 -3.09785 33981 ft 489 kts 15°
2026-05-06 11:39 39.31909 -3.06680 33988 ft 488 kts 15°
2026-05-06 11:39 39.38257 -3.03589 33992 ft 487 kts 15°
2026-05-06 11:40 39.44595 -3.00494 34004 ft 487 kts 15°
2026-05-06 11:40 39.50921 -2.97386 33995 ft 486 kts 15°
2026-05-06 11:41 39.57235 -2.94269 34001 ft 485 kts 15°
2026-05-06 11:41 39.63539 -2.91154 34000 ft 484 kts 15°
2026-05-06 11:42 39.69839 -2.88052 34000 ft 484 kts 15°
2026-05-06 11:42 39.76130 -2.84955 34007 ft 483 kts 15°
2026-05-06 11:43 39.82400 -2.81846 34006 ft 482 kts 15°
2026-05-06 11:43 39.88670 -2.78732 34011 ft 482 kts 15°
2026-05-06 11:44 39.98011 -2.74095 34014 ft 480 kts 15°
2026-05-06 11:44 40.04291 -2.70971 34010 ft 479 kts 15°
2026-05-06 11:45 40.10518 -2.67858 34014 ft 479 kts 15°
2026-05-06 11:45 40.16707 -2.64751 34017 ft 478 kts 15°
2026-05-06 11:46 40.22921 -2.61628 34020 ft 478 kts 15°
2026-05-06 11:46 40.29124 -2.58518 34014 ft 477 kts 15°
2026-05-06 11:47 40.35315 -2.55414 34015 ft 476 kts 15°
2026-05-06 11:47 40.41352 -2.51771 34018 ft 479 kts 21°
2026-05-06 11:48 40.47315 -2.47869 34017 ft 478 kts 21°
2026-05-06 11:48 40.53267 -2.43971 34010 ft 478 kts 21°
2026-05-06 11:49 40.59218 -2.40073 34004 ft 478 kts 21°
2026-05-06 11:49 40.65160 -2.36158 34005 ft 477 kts 21°
2026-05-06 11:50 40.71097 -2.32238 34006 ft 477 kts 21°
2026-05-06 11:50 40.77034 -2.28318 34002 ft 477 kts 21°
2026-05-06 11:51 40.81967 -2.25065 34002 ft 477 kts 21°
2026-05-06 11:51 40.87892 -2.21143 34006 ft 476 kts 21°
2026-05-06 11:52 40.93810 -2.17196 34010 ft 476 kts 21°
2026-05-06 11:52 40.99726 -2.13262 34007 ft 475 kts 21°
2026-05-06 11:53 41.05636 -2.09331 34013 ft 475 kts 21°
2026-05-06 11:53 41.11381 -2.04944 34012 ft 478 kts 27°
2026-05-06 11:54 41.17009 -2.00229 34016 ft 478 kts 28°
2026-05-06 11:54 41.22631 -1.95509 34012 ft 478 kts 27°
2026-05-06 11:55 41.28254 -1.90802 34013 ft 478 kts 28°
2026-05-06 11:55 41.33874 -1.86086 34007 ft 477 kts 28°
2026-05-06 11:56 41.39489 -1.81363 34014 ft 477 kts 28°
2026-05-06 11:56 41.45099 -1.76634 34003 ft 477 kts 28°
2026-05-06 11:57 41.50706 -1.71897 33998 ft 477 kts 28°
2026-05-06 11:57 41.56310 -1.67154 34011 ft 477 kts 28°
2026-05-06 11:58 41.61916 -1.62394 33988 ft 477 kts 28°
2026-05-06 11:58 41.67521 -1.57628 33992 ft 478 kts 28°
2026-05-06 11:59 41.73124 -1.52853 33998 ft 477 kts 28°
2026-05-06 11:59 41.78724 -1.48068 33997 ft 478 kts 28°
2026-05-06 12:00 41.84320 -1.43267 34004 ft 478 kts 28°
2026-05-06 12:00 41.89927 -1.38461 34003 ft 478 kts 28°
2026-05-06 12:01 41.95528 -1.33648 34006 ft 478 kts 28°
2026-05-06 12:01 42.01133 -1.28831 34003 ft 478 kts 28°
2026-05-06 12:02 42.06733 -1.23997 34002 ft 478 kts 28°
2026-05-06 12:02 42.12149 -1.18768 34008 ft 482 kts 36°
2026-05-06 12:03 42.17326 -1.13012 34003 ft 482 kts 36°
2026-05-06 12:03 42.22508 -1.07261 34007 ft 483 kts 36°
2026-05-06 12:04 42.27696 -1.01501 34000 ft 483 kts 36°
2026-05-06 12:04 42.32885 -0.95726 33991 ft 483 kts 36°
2026-05-06 12:05 42.38071 -0.89924 33989 ft 484 kts 36°
2026-05-06 12:05 42.43133 -0.83895 33992 ft 488 kts 45°
2026-05-06 12:06 42.47366 -0.76679 33984 ft 490 kts 50°
2026-05-06 12:06 42.51520 -0.69351 33977 ft 490 kts 50°
2026-05-06 12:07 42.55681 -0.62017 33971 ft 491 kts 50°
2026-05-06 12:07 42.59844 -0.54674 33962 ft 491 kts 50°
2026-05-06 12:08 42.64002 -0.47311 33968 ft 492 kts 51°
2026-05-06 12:08 42.68152 -0.39934 33963 ft 492 kts 50°
2026-05-06 12:09 42.72303 -0.32539 33965 ft 492 kts 50°
2026-05-06 12:09 42.76450 -0.25137 33965 ft 492 kts 50°
2026-05-06 12:10 42.80597 -0.17717 33959 ft 492 kts 50°
2026-05-06 12:10 42.84889 -0.10451 33963 ft 492 kts 48°
2026-05-06 12:11 42.89279 -0.03313 33983 ft 491 kts 47°
2026-05-06 12:11 42.93658 0.03860 33990 ft 492 kts 49°
2026-05-06 12:12 42.97979 0.11093 33980 ft 492 kts 49°
2026-05-06 12:12 43.02285 0.18357 33987 ft 492 kts 49°
2026-05-06 12:13 43.06594 0.25615 33987 ft 492 kts 49°
2026-05-06 12:13 43.10939 0.32918 33989 ft 492 kts 49°
2026-05-06 12:14 43.15215 0.40138 33991 ft 491 kts 49°
2026-05-06 12:14 43.19511 0.47417 33988 ft 491 kts 49°
2026-05-06 12:15 43.23802 0.54706 33986 ft 491 kts 49°
2026-05-06 12:15 43.28088 0.62013 33985 ft 491 kts 49°
2026-05-06 12:16 43.32373 0.69323 33985 ft 491 kts 50°
2026-05-06 12:16 43.36652 0.76642 33989 ft 491 kts 50°
2026-05-06 12:17 43.40922 0.83964 33991 ft 491 kts 50°
2026-05-06 12:17 43.45189 0.91301 33988 ft 490 kts 50°
2026-05-06 12:18 43.49448 0.98631 33990 ft 490 kts 50°
2026-05-06 12:18 43.53697 1.05960 33989 ft 490 kts 50°
2026-05-06 12:19 43.57938 1.13311 33990 ft 490 kts 50°
2026-05-06 12:19 43.62176 1.20670 33991 ft 489 kts 50°
2026-05-06 12:20 43.66403 1.28026 33986 ft 489 kts 50°
2026-05-06 12:20 43.70610 1.35495 33992 ft 489 kts 52°
2026-05-06 12:21 43.74615 1.43019 33978 ft 489 kts 53°
2026-05-06 12:21 43.78601 1.50642 33976 ft 489 kts 53°
2026-05-06 12:22 43.82605 1.58236 33973 ft 488 kts 52°
2026-05-06 12:22 43.86634 1.65816 33974 ft 488 kts 52°
2026-05-06 12:23 43.90657 1.73394 33970 ft 488 kts 53°
2026-05-06 12:23 43.94671 1.80997 33976 ft 488 kts 53°
2026-05-06 12:24 43.98616 1.88658 33970 ft 488 kts 54°
2026-05-06 12:24 44.02453 1.96422 33970 ft 487 kts 55°
2026-05-06 12:25 44.06275 2.04205 33982 ft 487 kts 55°
2026-05-06 12:25 44.10112 2.11971 33975 ft 487 kts 55°
2026-05-06 12:26 44.13954 2.19734 33977 ft 487 kts 55°
2026-05-06 12:26 44.17800 2.27498 33977 ft 487 kts 55°
2026-05-06 12:27 44.21633 2.35282 33969 ft 487 kts 55°
2026-05-06 12:27 44.25457 2.43088 33970 ft 487 kts 55°
2026-05-06 12:28 44.29277 2.50909 33971 ft 488 kts 55°
2026-05-06 12:28 44.33095 2.58739 33967 ft 488 kts 55°
2026-05-06 12:29 44.36914 2.66578 33970 ft 488 kts 55°
2026-05-06 12:29 44.40728 2.74428 33968 ft 488 kts 56°
2026-05-06 12:30 44.44534 2.82289 33970 ft 488 kts 56°
2026-05-06 12:30 44.48334 2.90157 33959 ft 488 kts 56°
2026-05-06 12:31 44.51485 2.96697 33952 ft 487 kts 56°
2026-05-06 12:31 44.55273 3.04578 33948 ft 486 kts 56°
2026-05-06 12:32 44.59029 3.12423 33944 ft 484 kts 56°
2026-05-06 12:32 44.62674 3.20332 33614 ft 481 kts 59°
2026-05-06 12:33 44.64357 3.24401 32888 ft 482 kts 61°
2026-05-06 12:33 44.65969 3.28532 32221 ft 482 kts 62°
2026-05-06 12:33 44.67547 3.32677 31958 ft 482 kts 62°
2026-05-06 12:33 44.69135 3.36840 31921 ft 484 kts 62°
2026-05-06 12:34 44.72384 3.45146 31918 ft 485 kts 61°